Location: Newark
(48.1500°N, 2.9667°W)
Time: 06:00:55
(UTC+00:00)

A-11 Canister half - Pass Details

Date: 20 January 2020
Orbit: 1524 x 1684 km, 47.3° (Epoch: 27 February)

Event Time Altitude Azimuth Distance (km) Brightness Sun altitude
Rises 18:00:10 0° 206° (SSW) 4,667 12.2 -11.2°
Reaches altitude 10° 18:03:32 10° 198° (SSW) 3,696 11.5 -11.7°
Maximum altitude 18:11:35 34° 137° (SE) 2,343 9.7 -13.0°
Enters shadow 18:17:48 17° 85° (E) 3,257 10.1 -14.0°
Drops below altitude 10° 18:19:51 10° 78° (ENE) 3,797 - -14.4°
Sets 18:23:19 0° 69° (ENE) 4,809 - -14.9°
